Location: ????????
(55.7667°N, 37.4833°E)
Time: 14:44:37
(UTC+00:00)

COBE Rocket - Pass Details

Date: 19 May 2025
Orbit: 676 x 772 km, 97.1° (Epoch: 20 June)

Event Time Altitude Azimuth Distance (km) Brightness Sun altitude
Rises 20:09:42 0° 13° (NNE) 3,222 8.3 -12.5°
Reaches altitude 10° 20:12:00 10° 13° (NNE) 2,304 7.4 -12.6°
Maximum altitude 20:17:07 88° 288° (WNW) 778 4.0 -12.9°
Enters shadow 20:21:40 13° 197° (SSW) 2,084 5.8 -13.0°
